Wind_Speed
4 4 4 4 5 5 6 6 7 6 6 7 8 8 8 9 9 9 10 9 9 10 10 11 12 12 11 11 11 12 12 11 11 11 11 11 10 10 11 11 11 10 10
5 5 5 5 5 6 6 7 7 8 8 8 9 9 9 9 10 10 11 11 10 10 10 11 12 12 12 11 11 12 12 12 11 11 11 11 11 11 12 12 12 11 11
6 6 5 5 6 7 8 8 8 9 9 9 10 10 10 10 10 11 12 12 12 11 11 12 12 12 13 12 13 13 14 14 13 12 11 11 12 12 13 12 12 12 12
6 6 7 6 7 8 9 9 10 10 11 11 11 11 11 11 11 12 12 13 13 13 12 12 13 13 14 15 15 15 16 15 15 13 13 13 13 13 13 13 13 14 13
7 7 8 7 8 9 9 10 10 11 12 12 12 12 12 12 13 13 13 13 14 14 14 14 15 15 15 15 16 16 16 16 15 15 15 15 15 14 14 14 14 15 14
8 8 9 8 9 9 9 10 11 11 12 13 13 13 14 14 14 14 14 14 14 15 15 15 16 16 16 17 17 17 17 17 17 16 16 16 16 16 16 15 15 16 16
9 10 10 9 9 10 10 11 12 12 12 12 14 14 15 15 15 15 16 16 16 16 16 16 17 17 17 17 18 17 17 17 17 17 17 17 17 17 17 17 17 17 17
10 10 10 10 10 10 10 11 11 12 12 13 14 15 16 16 16 16 16 17 17 17 17 17 17 17 17 17 18 18 18 18 18 18 18 19 18 18 18 18 18 18 18
10 10 11 11 11 11 11 11 12 13 13 13 14 15 15 17 17 17 17 18 18 18 18 18 18 18 18 18 18 19 20 20 20 20 20 20 20 20 19 20 20 19 19
10 11 12 11 11 12 12 12 13 13 14 14 14 15 16 17 17 18 18 18 19 19 19 20 19 19 19 20 20 19 20 21 21 22 22 22 22 21 22 20 20 20 20
11 12 12 12 12 12 12 13 13 13 14 14 15 16 17 17 17 18 19 19 20 21 21 21 21 21 21 21 21 22 21 22 22 23 24 24 23 23 23 22 23 22 21
13 13 13 13 13 13 13 13 13 14 14 15 16 15 16 17 18 18 20 20 20 20 21 22 22 22 22 23 22 22 23 24 24 25 24 24 24 24 25 25 25 24 24
14 15 15 14 13 13 13 14 14 14 15 15 16 16 16 17 17 18 19 20 20 21 21 22 22 23 23 23 23 23 24 25 25 25 25 25 24 25 26 26 26 26 25
15 16 16 15 14 14 14 14 15 15 15 16 16 16 16 17 18 19 19 20 20 21 22 23 23 23 24 24 23 23 23 24 25 26 26 26 26 27 27 27 27 27 27
17 17 16 16 15 15 16 15 15 15 15 16 16 16 17 18 19 20 20 20 21 22 23 24 24 24 25 25 25 24 25 25 25 26 27 27 28 28 28 29 28 28 27
17 17 17 17 17 17 17 17 16 16 16 17 17 17 18 19 20 21 21 21 21 22 23 24 25 26 26 27 27 27 27 27 27 26 27 28 29 28 28 28 28 28 27
18 18 18 18 18 18 17 17 17 17 17 17 18 18 19 20 21 22 22 23 23 23 23 24 26 27 27 28 28 28 28 28 28 28 28 28 28 29 29 28 28 28 28
19 19 19 19 19 18 18 18 18 17 17 18 19 19 20 21 21 22 23 24 24 25 25 25 26 27 27 27 28 28 28 28 29 29 29 29 29 30 30 30 30 30 29
19 20 20 20 20 20 19 19 18 19 19 19 19 20 21 22 23 23 24 24 25 26 26 27 27 28 28 28 28 29 29 29 30 31 30 30 30 30 31 31 31 31 31
20 21 21 21 21 20 20 20 20 20 20 21 21 21 22 22 23 23 24 24 26 27 28 28 28 29 29 29 29 30 30 31 31 32 32 31 31 31 32 32 32 32 32
20 21 20 20 21 21 21 21 21 21 22 23 23 23 24 24 25 25 25 26 26 27 28 28 29 29 30 30 30 31 31 31 31 31 31 31 32 32 33 33 32 32 32
20 21 21 21 22 22 21 22 22 23 23 24 25 25 26 26 26 26 27 27 28 28 29 29 29 30 29 30 31 31 31 30 30 31 31 32 32 32 32 32 31 31 31
22 22 22 22 22 22 22 23 24 25 25 25 26 26 26 26 27 27 27 28 28 28 29 29 29 29 29 30 31 31 32 31 30 30 30 31 31 31 31 31 30 30 30
23 23 23 23 23 23 24 24 25 25 25 26 25 25 26 27 27 27 28 29 29 29 29 29 29 29 29 29 30 29 30 30 30 30 30 30 31 30 30 29 29 29 29
24 25 25 24 24 24 25 25 25 26 26 26 26 26 26 27 27 27 28 28 28 28 29 29 28 28 29 29 29 28 29 29 29 29 29 28 28 28 28 28 28 28 28
25 25 25 25 25 25 25 26 26 26 26 26 26 26 26 26 26 27 27 27 27 28 28 28 27 27 28 28 29 29 28 29 29 28 28 27 27 26 26 27 27 27 27
Wind_Direction
311 302 291 271 265 261 258 256 253 247 252 250 250 248 249 249 249 250 252 253 249 248 249 250 247 250 254 251 249 248 248 252 257 258 255 251 252 254 255 258 260 260 261
315 305 296 290 277 270 264 262 257 254 257 258 257 254 253 255 249 248 251 250 249 248 251 252 251 253 254 253 252 252 254 255 259 257 257 251 250 252 252 256 261 261 261
311 299 293 289 284 276 268 262 263 262 257 258 256 254 255 255 252 249 251 250 250 252 254 253 253 253 253 255 256 257 256 261 262 257 255 254 251 252 252 253 256 258 260
321 306 296 290 281 274 269 266 264 264 258 256 255 256 256 255 255 251 252 253 252 254 256 257 259 259 255 255 257 260 258 260 261 259 259 258 257 254 254 255 258 258 259
323 313 303 295 288 281 274 270 267 266 261 257 257 258 258 258 255 256 257 258 257 256 257 259 260 262 259 258 260 260 259 258 260 261 262 261 260 258 258 259 259 259 258
329 320 309 300 294 290 283 274 271 272 269 261 258 260 260 261 259 259 259 260 259 257 257 259 260 262 262 260 262 261 258 256 258 262 261 261 261 259 260 260 263 263 260
327 323 315 306 300 293 285 277 274 272 272 266 260 259 260 261 262 262 259 259 259 260 260 262 262 264 265 263 262 261 259 257 258 260 260 262 261 261 261 260 261 261 261
325 322 317 309 304 300 292 285 278 272 271 270 263 259 259 260 261 261 261 259 260 262 263 266 267 268 270 268 266 264 260 260 263 264 264 263 262 260 260 261 263 265 261
322 321 319 314 304 297 295 288 283 278 274 270 266 263 261 259 260 260 261 262 262 263 264 266 266 267 267 268 268 266 263 262 263 264 266 264 262 260 260 261 263 263 263
325 322 316 313 306 302 298 292 284 282 278 273 268 266 265 264 259 260 262 265 265 265 264 264 264 265 266 266 267 267 267 265 265 265 266 265 262 260 260 262 261 261 261
326 323 318 314 308 303 300 296 288 285 281 277 274 270 266 264 263 263 263 265 266 266 266 265 265 266 267 267 266 266 269 267 266 267 266 264 262 260 260 261 262 262 261
323 323 321 317 312 307 303 299 294 288 285 281 278 275 271 268 265 265 265 264 266 268 267 266 265 267 268 268 267 267 267 266 266 266 265 265 263 261 260 260 262 264 262
320 320 319 317 314 311 305 302 300 294 287 283 279 276 274 272 269 268 268 268 269 269 269 268 266 267 269 269 267 267 266 266 265 265 264 265 264 264 263 261 261 262 261
315 315 314 312 310 309 306 304 302 298 292 287 283 280 276 273 273 271 271 271 270 269 270 268 265 267 268 269 269 268 268 267 266 265 264 265 263 262 262 260 261 261 260
315 313 311 308 307 306 304 302 300 299 298 291 287 283 280 277 275 275 273 272 272 271 269 268 266 266 269 269 270 271 270 269 269 267 265 264 262 261 261 259 260 261 260
316 314 311 309 308 307 305 303 301 298 297 292 288 284 283 282 280 278 276 275 274 272 271 270 268 268 269 268 269 270 270 269 269 269 268 266 264 263 261 260 260 259 258
312 311 311 310 309 306 305 304 302 299 296 293 291 289 286 285 285 282 280 278 275 274 273 272 271 270 269 269 269 269 268 268 268 270 269 268 266 263 262 260 258 258 259
309 309 308 307 305 303 302 300 299 300 298 296 293 291 290 289 288 284 281 280 279 278 277 275 274 273 271 270 270 270 270 269 269 269 269 268 267 264 263 261 259 258 258
306 309 308 305 304 303 301 300 299 299 297 296 294 292 291 291 290 286 283 281 281 281 280 279 276 275 274 272 270 269 270 271 270 270 269 267 266 264 263 262 259 258 258
305 307 308 307 305 304 303 302 300 298 298 297 295 293 292 292 293 289 286 285 284 282 282 282 279 276 274 273 271 270 270 270 270 270 269 268 265 264 263 263 261 259 257
306 307 309 310 309 306 304 303 302 298 297 297 295 293 291 292 292 291 289 288 286 285 284 283 282 280 276 274 273 273 271 269 269 269 269 268 266 264 263 263 262 259 257
306 307 307 308 307 306 304 303 302 301 298 296 295 293 291 291 292 292 291 289 288 288 287 286 284 281 279 277 276 274 272 270 268 268 268 267 267 265 264 263 262 260 259
304 304 303 303 304 303 302 302 302 301 300 299 298 296 294 293 292 292 292 292 292 292 291 288 285 283 280 280 279 276 276 272 270 269 267 266 265 264 263 262 261 260 258
303 302 302 302 302 301 301 301 301 301 300 299 300 298 297 295 294 293 292 293 293 293 293 290 287 285 282 281 282 279 276 275 272 271 269 266 263 262 263 261 259 258 257
305 304 306 305 304 304 303 302 301 301 301 300 298 298 299 298 297 295 295 294 293 293 293 291 289 286 284 283 282 279 275 274 272 271 269 266 262 261 262 260 258 257 256
305 305 304 306 306 305 304 303 302 301 300 300 299 299 300 301 300 299 298 297 295 295 294 292 290 288 286 284 282 279 277 274 272 269 267 266 263 263 262 262 259 257 256
Height
5868 5868 5867 5867 5868 5868 5868 5868 5867 5868 5869 5869 5869 5870 5871 5871 5871 5872 5873 5874 5874 5875 5875 5876 5876 5877 5877 5877 5877 5877 5878 5878 5878 5879 5879 5879 5880 5880 5881 5881 5881 5882 5882
5867 5867 5866 5866 5866 5866 5866 5866 5866 5867 5867 5867 5868 5868 5869 5869 5869 5870 5871 5871 5872 5872 5873 5873 5874 5874 5874 5874 5875 5875 5875 5875 5876 5876 5876 5877 5877 5878 5878 5879 5879 5879 5880
5866 5865 5865 5865 5864 5864 5864 5864 5864 5865 5865 5865 5866 5866 5866 5867 5867 5868 5868 5869 5870 5870 5870 5871 5871 5871 5872 5872 5872 5872 5872 5872 5873 5873 5874 5874 5875 5875 5875 5876 5876 5877 5877
5865 5864 5863 5863 5862 5862 5862 5862 5862 5862 5862 5863 5863 5864 5864 5864 5865 5865 5866 5866 5867 5867 5868 5868 5868 5868 5869 5869 5869 5869 5869 5870 5870 5870 5871 5871 5872 5872 5872 5873 5873 5873 5874
5863 5862 5861 5861 5860 5860 5859 5860 5860 5860 5860 5860 5861 5861 5862 5862 5862 5863 5863 5863 5864 5864 5865 5865 5865 5865 5865 5866 5866 5866 5866 5867 5867 5868 5868 5868 5869 5869 5869 5870 5870 5870 5870
5862 5861 5860 5859 5858 5857 5857 5857 5857 5857 5857 5857 5858 5858 5859 5859 5859 5859 5860 5860 5860 5861 5861 5861 5861 5862 5862 5862 5862 5863 5863 5863 5864 5864 5864 5864 5865 5865 5866 5866 5866 5866 5867
5860 5859 5858 5857 5856 5855 5855 5854 5854 5854 5854 5854 5854 5855 5856 5856 5856 5856 5856 5857 5857 5857 5857 5857 5858 5858 5858 5858 5858 5858 5859 5859 5860 5860 5860 5861 5861 5861 5862 5862 5862 5863 5863
5858 5857 5856 5854 5854 5853 5852 5851 5851 5851 5851 5850 5851 5851 5852 5853 5852 5852 5853 5853 5853 5853 5853 5853 5854 5854 5854 5854 5854 5854 5854 5855 5856 5856 5856 5857 5857 5857 5858 5858 5858 5858 5859
5856 5855 5853 5852 5851 5850 5849 5848 5847 5847 5847 5847 5847 5847 5847 5848 5848 5848 5848 5849 5849 5849 5849 5849 5849 5849 5849 5849 5850 5850 5850 5850 5851 5851 5851 5852 5852 5853 5853 5853 5854 5854 5854
5854 5853 5851 5849 5848 5847 5846 5845 5844 5844 5843 5843 5843 5843 5843 5843 5844 5844 5844 5844 5844 5844 5844 5844 5844 5844 5844 5845 5845 5844 5845 5845 5845 5846 5846 5846 5847 5847 5847 5847 5847 5849 5850
5853 5850 5849 5847 5845 5844 5843 5842 5841 5840 5839 5839 5839 5838 5838 5839 5839 5839 5840 5840 5839 5839 5839 5839 5839 5839 5839 5839 5839 5839 5839 5839 5840 5840 5840 5840 5840 5841 5841 5842 5842 5843 5844
5851 5848 5846 5844 5842 5841 5839 5838 5837 5836 5835 5835 5835 5834 5834 5834 5834 5834 5834 5834 5834 5834 5833 5833 5833 5833 5833 5834 5834 5833 5833 5833 5834 5834 5834 5834 5834 5835 5835 5836 5836 5837 5838
5848 5846 5844 5842 5840 5838 5836 5835 5833 5832 5831 5830 5830 5830 5830 5830 5829 5829 5829 5829 5829 5828 5828 5827 5827 5827 5828 5827 5827 5827 5827 5827 5827 5827 5827 5827 5827 5828 5828 5829 5830 5831 5831
5845 5843 5841 5839 5837 5835 5833 5831 5830 5828 5827 5826 5825 5825 5825 5825 5824 5824 5824 5824 5824 5823 5822 5822 5821 5821 5821 5821 5821 5821 5820 5820 5820 5820 5820 5820 5821 5821 5821 5822 5823 5824 5824
5842 5840 5837 5835 5833 5831 5829 5828 5826 5824 5823 5822 5821 5820 5820 5819 5819 5818 5818 5818 5818 5817 5817 5816 5815 5815 5815 5814 5814 5814 5814 5814 5813 5813 5813 5813 5813 5813 5814 5815 5816 5817 5817
5839 5836 5834 5832 5830 5828 5826 5824 5822 5820 5819 5817 5816 5815 5815 5814 5813 5812 5812 5811 5811 5811 5810 5809 5809 5808 5807 5807 5807 5807 5807 5806 5806 5805 5805 5805 5805 5805 5806 5807 5808 5809 5810
5835 5833 5830 5828 5826 5824 5822 5820 5818 5816 5814 5813 5812 5810 5809 5808 5807 5806 5805 5805 5804 5804 5803 5802 5801 5801 5800 5800 5799 5799 5799 5798 5798 5797 5797 5797 5797 5798 5798 5799 5800 5801 5802
5831 5829 5826 5824 5822 5820 5818 5816 5814 5812 5810 5808 5807 5805 5804 5803 5801 5800 5799 5798 5797 5796 5796 5795 5794 5792 5792 5791 5791 5790 5790 5790 5789 5789 5789 5789 5789 5789 5790 5790 5792 5793 5794
5826 5824 5822 5820 5817 5815 5813 5811 5809 5807 5805 5803 5801 5800 5798 5797 5795 5794 5793 5791 5790 5789 5788 5787 5786 5785 5783 5783 5782 5782 5781 5781 5780 5780 5780 5780 5780 5780 5781 5781 5782 5784 5785
5821 5819 5817 5815 5812 5810 5808 5806 5804 5802 5800 5798 5796 5794 5793 5791 5789 5787 5786 5784 5783 5782 5780 5779 5778 5776 5775 5774 5774 5773 5772 5772 5771 5771 5771 5771 5771 5771 5772 5772 5773 5774 5776
5816 5814 5812 5810 5807 5805 5803 5801 5799 5797 5795 5792 5791 5789 5787 5785 5783 5781 5779 5777 5775 5774 5772 5771 5769 5768 5767 5765 5765 5764 5763 5762 5762 5761 5761 5761 5761 5762 5762 5762 5763 5764 5766
5811 5809 5807 5804 5802 5800 5798 5795 5793 5791 5788 5786 5784 5782 5780 5778 5776 5774 5772 5770 5768 5766 5764 5762 5761 5759 5758 5756 5755 5754 5753 5753 5753 5753 5752 5752 5752 5752 5752 5753 5754 5755 5757
5806 5804 5801 5799 5797 5794 5792 5789 5787 5785 5782 5780 5777 5775 5773 5771 5768 5766 5764 5762 5759 5757 5755 5753 5752 5750 5748 5747 5746 5745 5744 5744 5744 5743 5743 5743 5743 5743 5743 5744 5744 5746 5747
5801 5798 5796 5793 5790 5788 5786 5783 5781 5778 5776 5773 5771 5768 5766 5763 5761 5758 5756 5754 5751 5749 5746 5744 5742 5741 5739 5738 5737 5736 5735 5735 5734 5734 5734 5734 5734 5734 5734 5735 5735 5737 5738
5795 5792 5790 5787 5784 5782 5779 5777 5774 5772 5769 5766 5764 5761 5758 5756 5753 5751 5749 5746 5743 5740 5738 5735 5733 5731 5729 5728 5727 5726 5725 5725 5725 5725 5724 5725 5725 5725 5726 5726 5727 5728 5729
5789 5786 5784 5781 5778 5775 5773 5770 5767 5765 5762 5759 5756 5754 5751 5748 5746 5743 5740 5738 5735 5732 5729 5727 5724 5722 5720 5719 5717 5717 5716 5716 5715 5716 5716 5716 5716 5716 5718 5718 5719 5720 5721